Date String (YYYY-MM-DD hh:mm:ss) UTC,Instrument flags,absolute air pressure of the measurement (hPa),sample flow rate (lpm),inlet stack bypass flow (lpm),air temperature of the measurement (°C),ambient temperature measured by the external sensor (°C),aerosol sample conditioner tube jacket temperature (°C),OPC LED temperature (°C),internal box temperature (°C),relative humidity of the measurement (%),span deviation,mass concentration of particles derived from Lorenz-Mie calculation of OPC scattering (μg/m³),mass concentration of particles derived from Lorenz-Mie calculation of OPC scattering (μg/m³),mass concentration of particles derived from Lorenz-Mie calculation of OPC scattering (μg/m³)
DateTimeUTC,F1_M11,P_M11,Q1_M11,Q2_M11,T1_M11,T2_M11,T3_M11,T4_M11,T5_M11,U1_M11,ZSPAN_M11,X0_M11,X2_M11,X1_M11
2024-02-20 10:00:00,SystemResetWarning,0827.9,5.00,000.00,021.6,020.9,000.0,030.1,023.4,14.2,0000.0,0009.83,0003.81,0003.36
2024-02-20 10:01:00,SystemResetWarning,0827.8,5.00,000.00,021.6,020.9,000.0,030.1,023.4,14.1,0000.0,0009.62,0003.81,0003.40
2024-02-20 10:02:00,SystemResetWarning,0827.7,5.00,000.00,021.6,020.9,000.0,030.1,023.4,14.0,0000.0,0009.50,0003.83,0003.41
2024-02-20 10:03:00,SystemResetWarning,0827.8,5.00,000.00,021.6,020.9,000.0,030.1,023.4,13.9,0000.0,0010.25,0003.84,0003.42
2024-02-20 10:04:00,SystemResetWarning,0827.8,5.00,000.00,021.6,020.9,000.0,030.1,023.4,13.9,0000.0,0010.87,0003.88,0003.43
2024-02-20 10:05:00,SystemResetWarning,0827.8,5.00,000.00,021.5,020.9,000.0,030.1,023.4,13.9,0000.0,0010.67,0003.87,0003.45
2024-02-20 10:06:00,SystemResetWarning,0827.9,5.00,000.00,021.5,020.9,000.0,030.1,023.4,14.0,0000.0,0010.50,0003.92,0003.45
2024-02-20 10:07:00,SystemResetWarning,0827.8,5.00,000.00,021.5,020.9,000.0,030.1,023.4,14.0,0000.0,0010.32,0003.89,0003.46
2024-02-20 10:08:00,SystemResetWarning,0827.7,5.00,000.00,021.5,020.9,000.0,030.1,023.4,13.9,0000.0,0009.55,0003.89,0003.47
2024-02-20 10:09:00,SystemResetWarning,0827.6,4.99,000.00,021.5,020.9,000.0,030.1,023.4,13.4,0000.0,0009.06,0003.91,0003.49
2024-02-20 10:10:00,SystemResetWarning,0827.6,5.00,000.00,021.5,020.9,000.0,030.1,023.4,13.4,0000.0,0009.07,0003.93,0003.50
2024-02-20 10:11:00,SystemResetWarning,0827.7,5.00,000.00,021.5,020.9,000.0,030.1,023.4,13.5,0000.0,0009.02,0003.91,0003.50
2024-02-20 10:12:00,SystemResetWarning,0827.7,5.00,000.00,021.5,020.9,000.0,030.1,023.3,13.9,0000.0,0009.00,0003.90,0003.48
2024-02-20 10:13:00,SystemResetWarning,0827.7,5.01,000.00,021.5,020.9,000.0,030.1,023.3,14.0,0000.0,0008.95,0003.88,0003.47
2024-02-20 10:14:00,SystemResetWarning,0827.5,5.01,000.00,021.5,020.9,000.0,030.1,023.4,13.8,0000.0,0008.48,0003.88,0003.47
2024-02-20 10:15:00,SystemResetWarning,0827.4,5.00,000.00,021.5,020.9,000.0,030.1,023.4,13.9,0000.0,0007.92,0003.86,0003.47
2024-02-20 10:16:00,SystemResetWarning,0827.4,5.00,000.00,021.5,020.9,000.0,030.1,023.4,13.9,0000.0,0007.91,0003.88,0003.47
2024-02-20 10:17:00,SystemResetWarning,0827.7,5.00,000.00,021.5,020.9,000.0,030.0,023.3,13.8,0000.0,0007.28,0003.83,0003.46
2024-02-20 10:18:00,SystemResetWarning,0827.4,5.00,000.00,021.5,020.8,000.0,030.0,023.3,13.9,0000.0,0006.71,0003.76,0003.38
2024-02-20 10:19:00,SystemResetWarning,0827.5,5.00,000.00,021.5,020.9,000.0,030.0,023.3,13.9,0000.0,0006.52,0003.67,0003.28
2024-02-20 10:20:00,SystemResetWarning,0827.6,4.99,000.00,021.5,020.8,000.0,030.0,023.3,13.9,0000.0,0006.28,0003.59,0003.23
2024-02-20 10:21:00,SystemResetWarning,0827.7,5.00,000.00,021.5,020.8,000.0,030.0,023.3,14.0,0000.0,0006.25,0003.56,0003.21
2024-02-20 10:22:00,SystemResetWarning,0827.7,4.99,000.00,021.5,020.8,000.0,030.0,023.3,14.0,0000.0,0006.16,0003.52,0003.17
2024-02-20 10:23:00,SystemResetWarning,0827.7,5.00,000.00,021.4,020.8,000.0,030.0,023.3,13.9,0000.0,0005.99,0003.44,0003.07
2024-02-20 10:24:00,SystemResetWarning,0827.6,4.99,000.00,021.4,020.8,000.0,030.0,023.3,13.6,0000.0,0005.96,0003.36,0002.91
2024-02-20 10:25:00,SystemResetWarning,0827.7,5.01,000.00,021.4,020.8,000.0,030.0,023.3,13.7,0000.0,0006.68,0003.25,0002.75
2024-02-20 10:26:00,SystemResetWarning,0827.7,5.01,000.00,021.4,020.8,000.0,030.0,023.3,13.8,0000.0,0006.26,0003.16,0002.62
2024-02-20 10:27:00,SystemResetWarning,0827.5,5.00,000.00,021.4,020.8,000.0,030.0,023.2,13.9,0000.0,0006.11,0003.11,0002.56
2024-02-20 10:28:00,SystemResetWarning,0827.4,5.00,000.00,021.4,020.8,000.0,030.0,023.2,13.9,0000.0,0006.57,0003.10,0002.55
2024-02-20 10:29:00,SystemResetWarning,0827.6,5.00,000.00,021.4,020.8,000.0,030.0,023.2,14.0,0000.0,0006.60,0003.12,0002.63
2024-02-20 10:30:00,SystemResetWarning,0827.4,5.00,000.00,021.4,020.8,000.0,030.0,023.2,14.1,0000.0,0006.79,0003.18,0002.75
2024-02-20 10:31:00,SystemResetWarning,0827.7,4.99,000.00,021.4,020.8,000.0,030.0,023.2,14.0,0000.0,0006.85,0003.21,0002.80
2024-02-20 10:32:00,SystemResetWarning,0827.5,5.00,000.00,021.4,020.8,000.0,030.0,023.2,14.0,0000.0,0007.40,0003.17,0002.75
2024-02-20 10:33:00,SystemResetWarning,0827.4,5.00,000.00,021.4,020.7,000.0,029.9,023.1,14.0,0000.0,0007.88,0003.16,0002.71
2024-02-20 10:34:00,SystemResetWarning,0827.4,5.01,000.00,021.3,020.7,000.0,029.9,023.1,14.2,0000.0,0008.12,0003.21,0002.79
2024-02-20 10:35:00,SystemResetWarning,0827.4,5.01,000.00,021.3,020.7,000.0,029.9,023.1,14.3,0000.0,0008.45,0003.25,0002.88
2024-02-20 10:36:00,SystemResetWarning,0827.4,5.00,000.00,021.3,020.7,000.0,029.9,023.1,14.2,0000.0,0007.86,0003.27,0002.92
2024-02-20 10:37:00,SystemResetWarning,0827.3,5.00,000.00,021.3,020.7,000.0,029.9,023.1,14.3,0000.0,0008.01,0003.29,0002.94
2024-02-20 10:38:00,SystemResetWarning,0827.3,4.99,000.00,021.3,020.6,000.0,029.9,023.1,14.4,0000.0,0008.00,0003.27,0002.90
2024-02-20 10:39:00,SystemResetWarning,0827.4,4.99,000.00,021.3,020.7,000.0,029.9,023.1,14.3,0000.0,0007.69,0003.22,0002.83
2024-02-20 10:40:00,SystemResetWarning,0827.6,4.99,000.00,021.3,020.7,000.0,029.9,023.1,14.6,0000.0,0007.56,0003.19,0002.75
2024-02-20 10:41:00,SystemResetWarning,0827.4,5.01,000.00,021.3,020.7,000.0,029.9,023.1,14.8,0000.0,0007.51,0003.13,0002.65
2024-02-20 10:42:00,SystemResetWarning,0827.4,5.00,000.00,021.3,020.6,000.0,029.9,023.0,14.8,0000.0,0007.37,0003.01,0002.52
2024-02-20 10:43:00,SystemResetWarning,0827.4,5.01,000.00,021.3,020.6,000.0,029.8,023.0,14.7,0000.0,0006.24,0002.89,0002.41
2024-02-20 10:44:00,SystemResetWarning,0827.3,4.99,000.00,021.2,020.6,000.0,029.8,023.0,14.4,0000.0,0005.52,0002.77,0002.33
2024-02-20 10:45:00,SystemResetWarning,0827.2,4.99,000.00,021.2,020.6,000.0,029.8,023.0,14.3,0000.0,0005.17,0002.55,0002.18
2024-02-20 10:46:00,SystemResetWarning,0827.3,5.00,000.00,021.2,020.6,000.0,029.8,023.0,14.3,0000.0,0004.42,0002.39,0002.04
2024-02-20 10:47:00,SystemResetWarning,0827.3,5.00,000.00,021.2,020.6,000.0,029.8,023.0,14.3,0000.0,0004.34,0002.31,0001.96
2024-02-20 10:48:00,SystemResetWarning,0827.4,5.01,000.00,021.2,020.6,000.0,029.8,023.0,14.4,0000.0,0004.09,0002.32,0001.95
2024-02-20 10:49:00,SystemResetWarning,0827.6,5.01,000.00,021.2,020.6,000.0,029.8,023.1,14.7,0000.0,0004.38,0002.49,0002.08
2024-02-20 10:50:00,SystemResetWarning,0827.5,4.99,000.00,021.2,020.6,000.0,029.8,023.1,14.6,0000.0,0004.49,0002.60,0002.21
2024-02-20 10:51:00,SystemResetWarning,0827.4,4.99,000.00,021.2,020.6,000.0,029.8,023.0,14.4,0000.0,0004.78,0002.82,0002.41
2024-02-20 10:52:00,SystemResetWarning,0827.4,5.00,000.00,021.2,020.6,000.0,029.8,023.0,14.4,0000.0,0004.91,0003.00,0002.57
2024-02-20 10:53:00,SystemResetWarning,0827.4,5.00,000.00,021.2,020.6,000.0,029.8,023.0,14.5,0000.0,0005.16,0002.99,0002.57
2024-02-20 10:54:00,SystemResetWarning,0827.2,5.01,000.00,021.2,020.5,000.0,029.8,023.0,14.5,0000.0,0005.56,0002.98,0002.54
2024-02-20 10:55:00,SystemResetWarning,0827.1,5.00,000.00,021.2,020.5,000.0,029.7,023.0,14.3,0000.0,0005.51,0002.96,0002.50
2024-02-20 10:56:00,SystemResetWarning,0827.1,5.00,000.00,021.2,020.5,000.0,029.7,022.9,14.4,0000.0,0005.33,0002.95,0002.49
2024-02-20 10:57:00,SystemResetWarning,0827.2,5.00,000.00,021.1,020.5,000.0,029.7,022.9,14.4,0000.0,0005.26,0003.04,0002.57
2024-02-20 10:58:00,SystemResetWarning,0827.2,5.00,000.00,021.1,020.5,000.0,029.7,022.9,14.5,0000.0,0005.25,0003.14,0002.71
2024-02-20 10:59:00,SystemResetWarning,0827.2,4.99,000.00,021.1,020.5,000.0,029.7,022.9,14.8,0000.0,0005.24,0003.14,0002.75
